Regional Weather Roundup
Issued by NWS Green Bay, WI

Home | Current Version | Previous Version | Text Only | Print | Product List | Glossary On
Versions: 1 2 3 4 5 6 7 8 9 10 11 12 13 14 15 16 17 18 19 20 21 22 23 24 25 26 27 28 29 30 31 32 33 34 35 36 37 38 39 40 41 42 43 44 45 46 47 48 49 50
000
ASUS43 KGRB 190059
RWRGRB

NORTH-CENTRAL AND NORTHEAST WISCONSIN REGIONAL WEATHER ROUNDUP
NATIONAL WEATHER SERVICE GREEN BAY WI
800 PM CDT FRI APR 18 2014

WIZ005-009-010>012-018-019-190200-
NORTH CENTRAL WISCONSIN

CITY           SKY/WX    TMP DP  RH WIND       PRES   REMARKS
IRONWOOD       CLEAR     34  19  55 NE3       30.31F
MANITOWISH WTR NOT AVBL
ARBOR VITAE    NOT AVBL
EAGLE RIVER    NOT AVBL
LAND O LAKES   NOT AVBL
RHINELANDER    CLEAR     36  18  48 E3        30.35R
PHILLIPS       NOT AVBL
ANTIGO         NOT AVBL
TOMAHAWK       NOT AVBL
MERRILL        NOT AVBL
$$

WIZ013-073-190200-
NORTHEAST WISCONSIN

CITY           SKY/WX    TMP DP  RH WIND       PRES   REMARKS
IRON MOUNTAIN  CLEAR     36  22  56 NE5       30.37S
MARINETTE      CLEAR     36  23  60 E6        30.40S
$$

WIZ017-030-035>037-045-190200-
CENTRAL WISCONSIN

CITY           SKY/WX    TMP DP  RH WIND       PRES   REMARKS
MEDFORD        NOT AVBL
WAUSAU         CLEAR     44  18  35 NE5       30.31F
MOSINEE        CLEAR     43  21  42 NE7       30.34S
MARSHFIELD     PTCLDY    44  24  45 E7        30.30F
WISC RAPIDS    CLEAR     46  20  35 E5        30.33F
STEVENS POINT  NOT AVBL
WAUPACA        NOT AVBL
SHAWANO        NOT AVBL
CLINTONVILLE   NOT AVBL
$$

WIZ038-039-048-051-190200-
FOX VALLEY

CITY           SKY/WX    TMP DP  RH WIND       PRES   REMARKS
NWS GREEN BAY  CLEAR     41  30  65 E10       30.38S
APPLETON       PTCLDY    43  30  61 SE9       30.35S
OSHKOSH        CLEAR     42  31  64 E10       30.35R
FOND DU LAC    CLEAR     43  31  62 E13       30.35S
$$

WIZ022-050-052-190200-
EAST CENTRAL WISCONSIN

CITY           SKY/WX    TMP DP  RH WIND       PRES   REMARKS
STURGEON BAY   CLEAR     36  23  60 SE3       30.41S
MANITOWOC      NOT AVBL
SHEBOYGAN      CLEAR     35  26  69 E8        30.39S
$$

LMZ563-521-522-541>543-190200-
LAKESHORE

STATION/POSITION TIME  TEMP    WIND        PRES    VSBY  WAVE
                       AIR SEA DIR/SP/G                  HT/PER
                 (UTC) (F)     (DEG/KT/KT) (MB)    (MI)  (FT/S)
SHEBOYGAN LKSHOR 0000   36      50/  5/  6 1030.0R
KEWAUNEE LKSHORE 0000   35     100/  2/  3 1029.8R
NORTHPORT PIER   0000   35     150/  4/  5 1029.5R
SISTER BAY LKSHO 0000   39     150/  7/  8   N/A
MENOMINEE LKSHOR 0000   34      30/  5/  6 1029.9R
$$



USA.gov is the U.S. government's official web portal to all federal, state and local government web resources and services.